Showing default

COSMOS 1695, 16143

Orbit data source: Space-Track

COSMOS 1695, 16143 is a payload satellite owned by GUKOS (CIS) in LEO that was launched on Wed, 09 Oct 1985 UTC via a TSIKLON-3 launch vehicle from the Plesetsk Missile And Space Complex (PKMTR). Payload-class satellites include a variety of spacecraft equipped with specific instruments for various scientific and technological missions. These include communications satellites like Starlink; space stations such as the ISS; scientific satellites like the Hubble; Earth observation satellites from companies like Planet Labs, Umbra, and HawkEye 360; GPS; miniature CubeSats for education and research; and military/defense satellites.

Loading next visibility...
Identifier
16143, 1985-094F
Orbit
LEO
Country
Flag of CISCIS
Related business
Manufacturer
NPO PM
Mission
Spacecraft
Bus & Motor
STRELA-3, Unknown motor
Mass
225 kg wet, 225 kg dry
Launch date (UTC)
1985-10-09 (40 years ago)
Launch vehicle
TSIKLON-3
Launch site
Plesetsk Missile And Space Complex (PKMTR)
Object type
Payload
Rocket body
Debris
Shape & HBR
Unknown
Radar Cross Section
Medium (>0.1 m² and <1 m²)

Expand to show TLE details & history
Last TLE update: 7 hours ago

TLE from 7 hours ago
0 COSMOS 1695
1 16143U 85094F   25298.82437852  .00000006  00000-0 -27383-4 0  9990
2 16143  82.6033  57.5392 0006195 296.8342 182.4871 12.62894863845912
Epoch: 2025-10-25T19:47Z
TLE epoch observation values (Epoch: 2025-10-25T19:47:06.304Z)
Latitude
59.93187°
Longitude
-106.57942°
Altitude
1,425.986 km
Speed
7.151 km/s
True Right ascension
14h 58m 35s
True Declination
59° 47' 43"
Sunlit
Object was in daylight at epoch
Visualization orbit readout
Latitude
Unknown
Longitude
Unknown
Altitude
Unknown
Speed
Unknown
Apparent Right ascension
Unknown
Apparent Declination
Unknown
Sunlit
N/A
Visualization observer readout
Local Sidereal Time
22:23:47
Azimuth
Unknown
Elevation
Unknown
Doppler factor
Unknown
Orbital elements
Apogee altitude
1,413.161 km
Perigee altitude
1,403.514 km
Semi-major axis
7,786.474 km
Eccentricity
0.00062
Inclination
82.6033°
RAAN
57.5392°
Arg. of periapsis
296.8342°
True anomaly
182.48402°
Mean anomaly
182.4871°
Eccentric anomaly
182.48556°
Mean motion
3.15887 °/min
Orbital period
113.96 mins
BSTAR
-0.000027383
Loading maneuver chart data...
Computing Atmospheric mass density...
Loading historical data...
Loading historical data...
Loading historical data...
Loading historical data...
Loading historical data...
Loading historical data...
Loading historical data...

Documentation

Showing up to 5 results
|